Regional Weather Roundup
Issued by NWS Charleston, WV

Home | Current Version | Previous Version | Graphics & Text | Print | Product List | Glossary On
Versions: 1 2 3 4 5 6 7 8 9 10 11 12 13 14 15 16 17 18 19 20 21 22 23 24 25 26 27
000
ASUS41 KRLX 261010
RWRRLX
West Virginia Regional Weather Roundup
National Weather Service Charleston WV
600 AM EDT WED JUL 26 2017

Note: "fair" indicates few or no clouds below 12,000 feet with no
significant weather and/or obstructions to visibility.

WVZ003-261100-
Northern Panhandle of West Virginia

CITY           SKY/WX    TMP DP  RH WIND       PRES   REMARKS
WHEELING       FOG       57  55  93 CALM      30.19F VSB 1/2
$$

WVZ009-261100-
Northwest West Virginia

CITY           SKY/WX    TMP DP  RH WIND       PRES   REMARKS
PARKERSBURG    FOG       57  56  96 N3        30.20R VSB 1/4
$$

WVZ006-261100-
Western West Virginia

CITY           SKY/WX    TMP DP  RH WIND       PRES   REMARKS
HUNTINGTON     CLEAR     59  57  93 CALM      30.16R
$$

WVZ015-261100-
West Central West Virginia

CITY           SKY/WX    TMP DP  RH WIND       PRES   REMARKS
CHARLESTON     CLEAR     58  56  93 CALM      30.15S
$$

WVZ022-031-261100-
North Central West Virginia

CITY           SKY/WX    TMP DP  RH WIND       PRES   REMARKS
CLARKSBURG     CLEAR     54  52  93 CALM      30.18R
MORGANTOWN     CLEAR     58  54  86 CALM      30.19S
$$

WVZ025-035-042-045-261100-
Southern West Virginia

CITY           SKY/WX    TMP DP  RH WIND       PRES   REMARKS
BECKLEY        MOCLDY    63  57  81 SE10      30.22R
LOGAN          CLOUDY    63  61  94 CALM      30.17R
BLUEFIELD      PTCLDY    62  57  83 VRB5      30.24R
LEWISBURG      PTCLDY    55  54  97 N3        30.25R
$$

WVZ047-261100-
Northern Mountains of West Virginia

CITY           SKY/WX    TMP DP  RH WIND       PRES   REMARKS
ELKINS         FOG       57  55  93 CALM      30.23S VSB 1/2
$$

WVZ052-261100-
Eastern Panhandle of West Virginia

CITY           SKY/WX    TMP DP  RH WIND       PRES   REMARKS
MARTINSBURG    CLEAR     56  55  97 CALM      30.21R FOG
PETERSBURG     CLOUDY    59  57  95 CALM      30.23R
$$




USA.gov is the U.S. government's official web portal to all federal, state and local government web resources and services.